Change the Weather History Date:

Monday, October 24, 2011

  Actual Average Record
Temperature  
Mean Temperature 38 °F -  
Max Temperature 50 °F 49 °F 75 °F (1989)
Min Temperature 26 °F 30 °F 7 °F (1976)
Degree Days  
Heating Degree Days 27    
Moisture  
Dew Point 32 °F    
Average Humidity 80    
Maximum Humidity 93    
Minimum Humidity 62    
Precipitation  
Precipitation 0.00 in - - ()
Sea Level Pressure  
Sea Level Pressure 29.99 in    
Wind  
Wind Speed 1 mph (NNW)    
Max Wind Speed 7 mph    
Max Gust Speed -    
Visibility 10 miles    
Events      
Averages and records for this station are not official NWS values.
T = Trace of Precipitation, MM = Missing Value Source: NWS Daily Summary

Daily Weather History Graph

Daily Weather History Graph

Search for Another Location

Airport or City:

Trip Planner

Search our weather history database for the weather conditions in past years. The results will help you decide how hot, cold, wet, or windy it might be!

Date:

Astronomy

Oct. 24, 2011 Rise Set
Actual Time 7:56 AM CDT 6:16 PM CDT
Civil Twilight 7:24 AM CDT 6:48 PM CDT
Nautical Twilight 6:47 AM CDT 7:25 PM CDT
Astronomical Twilight 6:10 AM CDT 8:02 PM CDT
Moon 5:06 AM CDT (10/24) 4:48 PM CDT (10/24)
Length of Visible Light 11h 24m
Length of Day
10h 19m
Waning Crescent, 7% of the Moon is Illuminated
Oct 24
Waning Crescent
Oct 26
New
Nov 2
First Quarter
Nov 10
Full
Nov 18
Last Quarter

Hourly Weather History & Observations

Time (CDT) Temp. Windchill Dew Point Humidity Pressure Visibility Wind Dir Wind Speed Gust Speed Precip Events Conditions
12:33 AM 35.6 °F 29.9 °F 33.8 °F 93% 29.91 in 10.0 mi NW 6.9 mph - N/A   Scattered Clouds
12:54 AM 33.8 °F 28.6 °F 30.2 °F 87% 29.91 in 10.0 mi NNW 5.8 mph - N/A   Scattered Clouds
1:14 AM 33.8 °F - 30.2 °F 87% 29.92 in 10.0 mi Calm Calm - N/A   Scattered Clouds
1:34 AM 33.8 °F - 30.2 °F 87% 29.92 in 10.0 mi Calm Calm - N/A   Scattered Clouds
1:54 AM 33.8 °F - 30.2 °F 87% 29.92 in 10.0 mi Calm Calm - N/A   Clear
2:14 AM 33.8 °F - 30.2 °F 87% 29.92 in 10.0 mi Calm Calm - N/A   Clear
2:33 AM 33.8 °F - 30.2 °F 87% 29.93 in 10.0 mi Calm Calm - N/A   Clear
2:54 AM 33.8 °F - 30.2 °F 87% 29.94 in 10.0 mi Calm Calm - N/A   Clear
3:14 AM 32.0 °F - 28.4 °F 87% 29.93 in 10.0 mi Calm Calm - N/A   Clear
3:34 AM 30.2 °F - 28.4 °F 93% 29.93 in 10.0 mi Calm Calm - N/A   Clear
3:54 AM 30.2 °F - 26.6 °F 86% 29.93 in 10.0 mi Calm Calm - N/A   Clear
4:14 AM 26.6 °F - 23.0 °F 86% 29.94 in 10.0 mi Calm Calm - N/A   Clear
4:33 AM 26.6 °F - 23.0 °F 86% 29.94 in 10.0 mi Calm Calm - N/A   Clear
4:54 AM 28.4 °F - 26.6 °F 93% 29.95 in 10.0 mi Calm Calm - N/A   Clear
5:14 AM 28.4 °F - 24.8 °F 86% 29.95 in 10.0 mi Calm Calm - N/A   Clear
5:34 AM 28.4 °F - 24.8 °F 86% 29.96 in 10.0 mi Calm Calm - N/A   Clear
5:54 AM 28.4 °F - 24.8 °F 86% 29.97 in 1.5 mi Calm Calm - N/A   Clear
6:14 AM 26.6 °F - 24.8 °F 93% 29.98 in 10.0 mi Calm Calm - N/A   Mostly Cloudy
6:34 AM 30.2 °F - 26.6 °F 86% 29.98 in 10.0 mi Calm Calm - N/A   Overcast
6:54 AM 28.4 °F - 24.8 °F 86% 29.98 in 10.0 mi Calm Calm - N/A   Overcast
7:14 AM 28.4 °F - 26.6 °F 93% 29.98 in 10.0 mi Calm Calm - N/A   Mostly Cloudy
7:34 AM 28.4 °F - 24.8 °F 86% 30.00 in 10.0 mi Calm Calm - N/A   Mostly Cloudy
7:54 AM 28.4 °F - 24.8 °F 86% 30.00 in 10.0 mi Calm Calm - N/A   Overcast
8:14 AM 28.4 °F - 26.6 °F 93% 30.00 in 2.5 mi Calm Calm - N/A   Overcast
8:34 AM 30.2 °F - 26.6 °F 86% 30.00 in 3.0 mi Calm Calm - N/A   Overcast
8:54 AM 30.2 °F - 26.6 °F 86% 29.99 in 10.0 mi Calm Calm - N/A   Mostly Cloudy
9:14 AM 30.2 °F - 28.4 °F 93% 30.00 in 10.0 mi Calm Calm - N/A   Overcast
9:34 AM 32.0 °F - 28.4 °F 87% 30.01 in 10.0 mi Calm Calm - N/A   Overcast
9:54 AM 32.0 °F - 28.4 °F 87% 30.02 in 10.0 mi Calm Calm - N/A   Overcast
10:14 AM 33.8 °F - 30.2 °F 87% 30.02 in 10.0 mi Calm Calm - N/A   Mostly Cloudy
10:34 AM 35.6 °F - 32.0 °F 87% 30.03 in 10.0 mi Calm Calm - N/A   Scattered Clouds
10:54 AM 37.4 °F - 33.8 °F 87% 30.02 in 10.0 mi Calm Calm - N/A   Scattered Clouds
11:14 AM 37.4 °F - 33.8 °F 87% 30.03 in 10.0 mi Calm Calm - N/A   Scattered Clouds
11:34 AM 39.2 °F - 35.6 °F 87% 30.02 in 10.0 mi Calm Calm - N/A   Clear
11:54 AM 41.0 °F - 35.6 °F 81% 30.02 in 10.0 mi Calm Calm - N/A   Clear
12:14 PM 42.8 °F - 35.6 °F 76% 30.02 in 10.0 mi Calm Calm - N/A   Clear
12:34 PM 42.8 °F - 35.6 °F 76% 30.03 in 10.0 mi Calm Calm - N/A   Clear
12:54 PM 44.6 °F - 35.6 °F 71% 30.02 in 10.0 mi Calm Calm - N/A   Clear
1:34 PM 46.4 °F - 37.4 °F 71% 30.01 in 10.0 mi Calm Calm - N/A   Clear
1:54 PM 46.4 °F - 37.4 °F 71% 30.01 in 10.0 mi Calm Calm - N/A   Clear
2:34 PM 48.2 °F - 37.4 °F 66% 30.00 in 10.0 mi Calm Calm - N/A   Clear
2:54 PM 48.2 °F - 37.4 °F 66% 29.99 in 10.0 mi Calm Calm - N/A   Clear
3:13 PM 50.0 °F - 37.4 °F 62% 29.99 in 10.0 mi Calm Calm - N/A   Clear
3:34 PM 50.0 °F - 37.4 °F 62% 29.99 in 10.0 mi Calm Calm - N/A   Clear
3:54 PM 50.0 °F - 37.4 °F 62% 29.99 in 10.0 mi Calm Calm - N/A   Clear
4:14 PM 50.0 °F - 37.4 °F 62% 29.99 in 10.0 mi Calm Calm - N/A   Clear
4:34 PM 50.0 °F - 37.4 °F 62% 29.99 in 10.0 mi Calm Calm - N/A   Clear
4:54 PM 50.0 °F - 37.4 °F 62% 29.99 in 10.0 mi Calm Calm - N/A   Clear
5:14 PM 50.0 °F - 37.4 °F 62% 30.00 in 10.0 mi Calm Calm - N/A   Clear
5:34 PM 48.2 °F - 37.4 °F 66% 29.99 in 10.0 mi Calm Calm - N/A   Clear
5:54 PM 48.2 °F - 37.4 °F 66% 30.00 in 10.0 mi Calm Calm - N/A   Clear
6:14 PM 46.4 °F - 37.4 °F 71% 30.00 in 10.0 mi Calm Calm - N/A   Clear
6:34 PM 46.4 °F - 35.6 °F 66% 30.00 in 10.0 mi Calm Calm - N/A   Clear
6:53 PM 44.6 °F - 35.6 °F 71% 30.01 in 10.0 mi Calm Calm - N/A   Clear
7:14 PM 42.8 °F - 35.6 °F 76% 30.01 in 10.0 mi Calm Calm - N/A   Clear
7:34 PM 41.0 °F - 35.6 °F 81% 30.02 in 10.0 mi Calm Calm - N/A   Clear
7:53 PM 39.2 °F - 33.8 °F 81% 30.01 in 10.0 mi Calm Calm - N/A   Clear
8:14 PM 39.2 °F - 33.8 °F 81% 30.02 in 7.0 mi Calm Calm - N/A   Clear
8:34 PM 42.8 °F - 35.6 °F 76% 30.02 in 10.0 mi Calm Calm - N/A   Clear
8:53 PM 42.8 °F - 35.6 °F 76% 30.03 in 10.0 mi Calm Calm - N/A   Clear
9:34 PM 37.4 °F - 33.8 °F 87% 30.04 in 10.0 mi Calm Calm - N/A   Clear
9:53 PM 37.4 °F - 33.8 °F 87% 30.04 in 10.0 mi Calm Calm - N/A   Clear
10:33 PM 35.6 °F - 32.0 °F 87% 30.05 in 10.0 mi Calm Calm - N/A   Clear
11:14 PM 35.6 °F - 30.2 °F 81% 30.05 in 10.0 mi Calm Calm - N/A   Clear
11:34 PM 35.6 °F - 30.2 °F 81% 30.05 in 10.0 mi Calm Calm - N/A   Clear
11:54 PM 33.8 °F - 30.2 °F 87% 30.05 in 10.0 mi Calm Calm - N/A   Clear